TimeEDT,TemperatureF,Dew PointF,Humidity,Sea Level PressureIn,VisibilityMPH,Wind Direction,Wind SpeedMPH,Gust SpeedMPH,PrecipitationIn,Events,Conditions,WindDirDegrees,DateUTC
12:15 AM,34.7,14.4,43,30.08,10.0,South,9.2,-,N/A,,Overcast,190,2014-03-14 04:15:00
12:35 AM,34.7,14.7,44,30.08,10.0,South,9.2,-,N/A,,Overcast,180,2014-03-14 04:35:00
12:55 AM,34.7,15.1,45,30.06,10.0,South,10.4,-,N/A,,Overcast,180,2014-03-14 04:55:00
1:15 AM,33.8,14.9,46,30.06,10.0,South,9.2,-,N/A,,Scattered Clouds,190,2014-03-14 05:15:00
1:35 AM,32.5,15.8,50,30.06,10.0,South,8.1,-,N/A,,Clear,180,2014-03-14 05:35:00
1:55 AM,32.0,16.3,52,30.05,10.0,South,8.1,-,N/A,,Clear,180,2014-03-14 05:55:00
2:15 AM,32.0,16.7,53,30.05,10.0,South,9.2,-,N/A,,Clear,180,2014-03-14 06:15:00
2:35 AM,32.0,16.9,54,30.05,10.0,South,9.2,-,N/A,,Clear,190,2014-03-14 06:35:00
2:55 AM,32.2,16.9,53,30.05,10.0,South,8.1,-,N/A,,Clear,190,2014-03-14 06:55:00
3:15 AM,32.0,17.4,55,30.05,10.0,South,6.9,-,N/A,,Clear,180,2014-03-14 07:15:00
3:35 AM,31.8,17.6,56,30.04,10.0,South,8.1,-,N/A,,Clear,180,2014-03-14 07:35:00
3:55 AM,31.6,17.6,56,30.03,10.0,South,8.1,-,N/A,,Clear,180,2014-03-14 07:55:00
4:15 AM,31.8,17.8,56,30.03,10.0,South,9.2,-,N/A,,Clear,180,2014-03-14 08:15:00
4:35 AM,32.2,17.6,55,30.02,10.0,South,9.2,-,N/A,,Clear,190,2014-03-14 08:35:00
4:55 AM,32.5,17.4,54,30.02,10.0,South,9.2,-,N/A,,Clear,180,2014-03-14 08:55:00
5:15 AM,32.2,17.4,55,30.02,10.0,South,9.2,-,N/A,,Clear,180,2014-03-14 09:15:00
5:35 AM,32.0,17.4,55,30.01,10.0,South,8.1,-,N/A,,Clear,180,2014-03-14 09:35:00
5:55 AM,32.0,17.4,55,30.01,10.0,South,6.9,-,N/A,,Clear,180,2014-03-14 09:55:00
6:15 AM,31.6,18.0,57,30.01,10.0,South,8.1,-,N/A,,Clear,180,2014-03-14 10:15:00
6:35 AM,32.0,18.3,57,30.00,10.0,South,9.2,-,N/A,,Clear,170,2014-03-14 10:35:00
6:55 AM,32.2,18.9,58,29.99,10.0,South,8.1,-,N/A,,Clear,170,2014-03-14 10:55:00
7:15 AM,32.9,18.7,56,29.99,10.0,South,10.4,-,N/A,,Clear,180,2014-03-14 11:15:00
7:35 AM,33.8,18.9,54,29.98,10.0,South,10.4,-,N/A,,Clear,170,2014-03-14 11:35:00
7:55 AM,34.2,19.2,54,29.98,10.0,South,11.5,-,N/A,,Clear,180,2014-03-14 11:55:00
8:15 AM,35.1,19.6,53,29.98,10.0,South,10.4,-,N/A,,Clear,190,2014-03-14 12:15:00
8:35 AM,36.7,19.8,50,29.99,10.0,South,10.4,16.1,N/A,,Clear,190,2014-03-14 12:35:00
8:55 AM,38.1,20.1,48,29.98,10.0,South,12.7,17.3,N/A,,Clear,190,2014-03-14 12:55:00
9:15 AM,39.0,20.1,47,29.98,10.0,South,12.7,-,N/A,,Clear,190,2014-03-14 13:15:00
9:35 AM,41.2,20.7,44,29.98,10.0,SSW,16.1,20.7,N/A,,Clear,210,2014-03-14 13:35:00
9:55 AM,43.2,21.2,42,29.98,10.0,SSW,17.3,23.0,N/A,,Clear,210,2014-03-14 13:55:00
10:15 AM,45.3,22.6,41,29.98,10.0,SW,18.4,27.6,N/A,,Clear,220,2014-03-14 14:15:00
10:35 AM,46.9,23.2,39,29.98,10.0,SSW,21.9,26.5,N/A,,Clear,210,2014-03-14 14:35:00
10:55 AM,48.4,23.7,38,29.97,10.0,SSW,20.7,26.5,N/A,,Clear,210,2014-03-14 14:55:00
11:15 AM,49.8,24.4,37,29.96,10.0,SSW,19.6,29.9,N/A,,Clear,210,2014-03-14 15:15:00
11:35 AM,52.0,25.2,35,29.95,10.0,SSW,20.7,27.6,N/A,,Clear,210,2014-03-14 15:35:00
11:55 AM,53.8,25.9,34,29.94,10.0,SSW,20.7,27.6,N/A,,Clear,210,2014-03-14 15:55:00
12:15 PM,55.2,26.1,33,29.93,10.0,SSW,21.9,31.1,N/A,,Clear,210,2014-03-14 16:15:00
12:35 PM,56.1,26.1,31,29.92,10.0,SSW,25.3,31.1,N/A,,Clear,210,2014-03-14 16:35:00
12:55 PM,56.8,26.8,32,29.90,10.0,SSW,24.2,31.1,N/A,,Clear,210,2014-03-14 16:55:00
1:15 PM,58.1,26.8,30,29.89,10.0,SSW,24.2,35.7,N/A,,Clear,210,2014-03-14 17:15:00
1:35 PM,59.5,26.2,28,29.88,10.0,SSW,26.5,33.4,N/A,,Clear,210,2014-03-14 17:35:00
1:55 PM,61.0,26.4,27,29.86,10.0,SSW,26.5,35.7,N/A,,Clear,210,2014-03-14 17:55:00
2:15 PM,60.6,25.9,27,29.85,10.0,SSW,27.6,41.4,N/A,,Clear,210,2014-03-14 18:15:00
2:35 PM,61.5,25.5,25,29.83,10.0,SW,25.3,38.0,N/A,,Clear,220,2014-03-14 18:35:00
2:55 PM,62.4,25.0,24,29.81,10.0,SW,32.2,40.3,N/A,,Clear,220,2014-03-14 18:55:00
3:15 PM,62.6,24.6,24,29.80,10.0,SSW,29.9,44.9,N/A,,Clear,210,2014-03-14 19:15:00
3:35 PM,62.2,24.1,23,29.79,10.0,SSW,32.2,46.0,N/A,,Clear,210,2014-03-14 19:35:00
3:55 PM,61.9,24.3,24,29.78,10.0,SSW,31.1,44.9,N/A,,Clear,210,2014-03-14 19:55:00
4:15 PM,63.1,24.6,23,29.77,10.0,SW,29.9,39.1,N/A,,Clear,220,2014-03-14 20:15:00
4:35 PM,63.7,23.9,22,29.76,10.0,SW,27.6,43.7,N/A,,Clear,220,2014-03-14 20:35:00
4:55 PM,64.0,23.4,21,29.76,10.0,SSW,35.7,44.9,N/A,,Clear,210,2014-03-14 20:55:00
5:15 PM,63.5,23.2,21,29.75,10.0,SW,29.9,39.1,N/A,,Clear,220,2014-03-14 21:15:00
5:35 PM,62.6,23.5,23,29.74,10.0,SSW,28.8,44.9,N/A,,Clear,210,2014-03-14 21:35:00
5:55 PM,61.5,23.4,23,29.73,10.0,SSW,27.6,38.0,N/A,,Clear,200,2014-03-14 21:55:00
6:15 PM,60.8,24.3,25,29.75,10.0,SSW,24.2,35.7,N/A,,Scattered Clouds,210,2014-03-14 22:15:00
6:35 PM,59.9,24.6,26,29.74,10.0,SSW,24.2,34.5,N/A,,Scattered Clouds,210,2014-03-14 22:35:00
6:55 PM,59.2,24.8,27,29.75,10.0,SSW,20.7,28.8,N/A,,Clear,210,2014-03-14 22:55:00
7:15 PM,58.5,25.3,28,29.75,10.0,SSW,23.0,29.9,N/A,,Clear,210,2014-03-14 23:15:00
7:35 PM,57.9,25.9,29,29.76,10.0,SW,15.0,20.7,N/A,,Mostly Cloudy,220,2014-03-14 23:35:00
7:55 PM,56.8,27.3,32,29.77,10.0,SW,12.7,18.4,N/A,,Overcast,220,2014-03-14 23:55:00
8:15 PM,56.3,28.0,34,29.78,10.0,SW,12.7,16.1,N/A,,Overcast,220,2014-03-15 00:15:00
8:35 PM,55.8,28.0,35,29.78,10.0,SW,13.8,-,N/A,,Overcast,220,2014-03-15 00:35:00
8:55 PM,56.3,27.1,33,29.78,10.0,SSW,16.1,-,N/A,,Overcast,210,2014-03-15 00:55:00
9:15 PM,55.9,27.5,34,29.78,10.0,SSW,15.0,21.9,N/A,,Overcast,210,2014-03-15 01:15:00
9:35 PM,55.8,27.9,34,29.78,10.0,SSW,16.1,-,N/A,,Overcast,210,2014-03-15 01:35:00
9:55 PM,55.4,28.2,35,29.79,10.0,SSW,16.1,21.9,N/A,,Overcast,210,2014-03-15 01:55:00
10:15 PM,55.4,28.6,36,29.79,10.0,SW,12.7,20.7,N/A,,Overcast,230,2014-03-15 02:15:00
10:35 PM,55.4,29.1,37,29.79,10.0,SW,15.0,23.0,N/A,,Overcast,220,2014-03-15 02:35:00
10:55 PM,55.0,30.0,38,29.79,10.0,SW,11.5,20.7,N/A,,Overcast,220,2014-03-15 02:55:00
11:15 PM,53.8,30.6,41,29.79,10.0,SW,12.7,17.3,N/A,,Mostly Cloudy,220,2014-03-15 03:15:00
11:35 PM,54.1,31.1,41,29.79,10.0,SW,12.7,19.6,N/A,,Overcast,230,2014-03-15 03:35:00
11:55 PM,54.1,31.8,43,29.81,10.0,West,18.4,21.9,N/A,Rain,Light Rain,270,2014-03-15 03:55:00